BADGR41 KSUU-KSUU

Flight info

Callsign BADGR41
Flight time 0h 24m
Altitude 15000
Route KSUU CA35 KSFO KCCR KSUU
Aircraft F22/L-ICAO/C

Departure

Time 2026-04-23 00:41
Airport Travis Air Force Base (KSUU)

Arrival

Time 2026-04-23 01:06
Airport Travis Air Force Base (KSUU)
Time Latitude Longitude Altitude Speed Heading
2026-04-23 00:39 38.26501 -121.93002 56 ft 0 kts 134°
2026-04-23 00:40 38.26497 -121.92997 52 ft 9 kts 134°
2026-04-23 00:40 38.26463 -121.92979 57 ft 13 kts 177°
2026-04-23 00:40 38.26377 -121.92915 56 ft 15 kts 156°
2026-04-23 00:40 38.26314 -121.92940 57 ft 1 kts 228°
2026-04-23 00:41 38.26304 -121.92954 56 ft 5 kts 227°
2026-04-23 00:41 38.26149 -121.93167 53 ft 130 kts 228°
2026-04-23 00:41 38.24716 -121.95124 148 ft 499 kts 226°
2026-04-23 00:41 38.20981 -121.96894 3768 ft 605 kts 228°
2026-04-23 00:42 38.21665 -122.00837 4494 ft 534 kts
2026-04-23 00:42 38.23208 -121.97213 3786 ft 503 kts 83°
2026-04-23 00:42 38.25346 -121.93679 1527 ft 541 kts 46°
2026-04-23 00:42 38.28131 -121.89863 992 ft 626 kts 47°
2026-04-23 00:43 38.30972 -121.90835 3481 ft 590 kts 279°
2026-04-23 00:43 38.28927 -121.95136 3170 ft 635 kts 220°
2026-04-23 00:43 38.26843 -122.00037 1852 ft 642 kts 246°
2026-04-23 00:43 38.24804 -122.04897 1663 ft 590 kts 229°
2026-04-23 00:44 38.22196 -122.08663 1705 ft 553 kts 225°
2026-04-23 00:44 38.19988 -122.12422 1728 ft 530 kts 238°
2026-04-23 00:44 38.17653 -122.15876 2421 ft 501 kts 219°
2026-04-23 00:44 38.15049 -122.18693 2464 ft 495 kts 218°
2026-04-23 00:45 38.12404 -122.21532 2374 ft 502 kts 220°
2026-04-23 00:45 38.09695 -122.24383 2483 ft 509 kts 218°
2026-04-23 00:45 38.06908 -122.27245 2584 ft 525 kts 218°
2026-04-23 00:45 38.04048 -122.30248 2723 ft 540 kts 220°
2026-04-23 00:46 38.01189 -122.33427 2605 ft 556 kts 220°
2026-04-23 00:46 37.98182 -122.36565 2699 ft 563 kts 218°
2026-04-23 00:46 37.95098 -122.39686 2587 ft 569 kts 219°
2026-04-23 00:46 37.92068 -122.42922 2671 ft 570 kts 219°
2026-04-23 00:47 37.88978 -122.46095 2549 ft 574 kts 217°
2026-04-23 00:47 37.85856 -122.49230 2669 ft 571 kts 219°
2026-04-23 00:47 37.82727 -122.52327 2737 ft 570 kts 212°
2026-04-23 00:47 37.79586 -122.51121 1981 ft 547 kts 98°
2026-04-23 00:48 37.81856 -122.48039 1576 ft 519 kts 27°
2026-04-23 00:48 37.84997 -122.45890 1560 ft 508 kts 27°
2026-04-23 00:48 37.87689 -122.43082 1336 ft 512 kts 65°
2026-04-23 00:48 37.86853 -122.39276 1324 ft 493 kts 161°
2026-04-23 00:49 37.84353 -122.41166 1024 ft 480 kts 248°
2026-04-23 00:49 37.82917 -122.45080 403 ft 498 kts 241°
2026-04-23 00:49 37.81314 -122.48980 561 ft 477 kts 239°
2026-04-23 00:49 37.79174 -122.51641 3654 ft 425 kts 192°
2026-04-23 00:50 37.76188 -122.51230 4336 ft 450 kts 165°
2026-04-23 00:50 37.73065 -122.50177 4542 ft 478 kts 162°
2026-04-23 00:50 37.69845 -122.48875 4577 ft 504 kts 159°
2026-04-23 00:50 37.66459 -122.47247 4680 ft 524 kts 157°
2026-04-23 00:51 37.63099 -122.45425 4820 ft 540 kts 154°
2026-04-23 00:51 37.59739 -122.43272 4617 ft 541 kts 146°
2026-04-23 00:51 37.56747 -122.40486 4994 ft 529 kts 134°
2026-04-23 00:51 37.54441 -122.36907 5119 ft 526 kts 119°
2026-04-23 00:52 37.52753 -122.32819 5074 ft 527 kts 112°
2026-04-23 00:52 37.51379 -122.28525 4999 ft 531 kts 107°
2026-04-23 00:52 37.50384 -122.24044 4935 ft 534 kts 99°
2026-04-23 00:52 37.51503 -122.20211 3505 ft 519 kts 14°
2026-04-23 00:53 37.54376 -122.22180 2876 ft 479 kts 307°
2026-04-23 00:53 37.56263 -122.25234 2990 ft 408 kts 306°
2026-04-23 00:53 37.57790 -122.28006 2392 ft 374 kts 302°
2026-04-23 00:53 37.58875 -122.30352 3370 ft 211 kts 298°
2026-04-23 00:54 37.59335 -122.31568 2157 ft 242 kts 296°
2026-04-23 00:54 37.60362 -122.33887 625 ft 196 kts 295°
2026-04-23 00:54 37.60898 -122.35190 204 ft 145 kts 295°
2026-04-23 00:54 37.61355 -122.36253 13 ft 128 kts 297°
2026-04-23 00:55 37.61948 -122.37689 386 ft 311 kts 298°
2026-04-23 00:55 37.62957 -122.39965 1478 ft 549 kts 299°
2026-04-23 00:55 37.62879 -122.44382 3877 ft 538 kts 232°
2026-04-23 00:55 37.59554 -122.46301 4769 ft 553 kts 173°
2026-04-23 00:56 37.55891 -122.44950 5540 ft 554 kts 144°
2026-04-23 00:56 37.53997 -122.40832 5358 ft 576 kts 91°
2026-04-23 00:56 37.55555 -122.36298 3537 ft 585 kts 45°
2026-04-23 00:56 37.59272 -122.34238 3051 ft 592 kts 12°
2026-04-23 00:57 37.63324 -122.34025 3074 ft 591 kts 340°
2026-04-23 00:57 37.66981 -122.36333 2450 ft 579 kts 334°
2026-04-23 00:57 37.70893 -122.36562 2348 ft 563 kts 359°
2026-04-23 00:57 37.74765 -122.36729 2437 ft 543 kts 351°
2026-04-23 00:58 37.78404 -122.37503 2714 ft 521 kts 346°
2026-04-23 00:58 37.81819 -122.38738 3365 ft 498 kts 338°
2026-04-23 00:58 37.85109 -122.39562 3149 ft 492 kts 19°
2026-04-23 00:58 37.86542 -122.36105 1898 ft 496 kts 108°
2026-04-23 00:59 37.83999 -122.33546 1467 ft 482 kts 157°
2026-04-23 00:59 37.81000 -122.31839 1546 ft 475 kts 151°
2026-04-23 00:59 37.78094 -122.29931 1997 ft 461 kts 149°
2026-04-23 00:59 37.76654 -122.26771 2269 ft 445 kts 67°
2026-04-23 01:00 37.78521 -122.23730 2575 ft 446 kts 47°
2026-04-23 01:00 37.81026 -122.21301 2652 ft 463 kts 31°
2026-04-23 01:00 37.83905 -122.19230 2784 ft 541 kts 23°
2026-04-23 01:00 37.87811 -122.16729 2706 ft 638 kts 24°
2026-04-23 01:01 37.91740 -122.14265 2692 ft 628 kts 29°
2026-04-23 01:01 37.95024 -122.10596 1849 ft 637 kts 41°
2026-04-23 01:01 37.98457 -122.06955 1472 ft 645 kts 34°
2026-04-23 01:01 38.02503 -122.04583 1380 ft 688 kts 13°
2026-04-23 01:02 38.07635 -122.02674 1477 ft 833 kts 17°
2026-04-23 01:02 38.12919 -122.00597 6261 ft 686 kts 19°
2026-04-23 01:02 38.17364 -121.98263 5931 ft 668 kts 28°
2026-04-23 01:02 38.20887 -121.94778 4488 ft 621 kts 41°
2026-04-23 01:03 38.23596 -121.91212 3835 ft 510 kts 46°
2026-04-23 01:03 38.25817 -121.88144 3609 ft 439 kts 46°
2026-04-23 01:03 38.27742 -121.85514 3437 ft 389 kts 45°
2026-04-23 01:03 38.29546 -121.83143 3021 ft 356 kts 36°
2026-04-23 01:04 38.31228 -121.83921 2243 ft 299 kts 261°
2026-04-23 01:04 38.30399 -121.86144 1468 ft 259 kts 243°
2026-04-23 01:04 38.28722 -121.89069 375 ft 170 kts 228°
2026-04-23 01:05 38.27957 -121.90137 58 ft 146 kts 228°
2026-04-23 01:05 38.27383 -121.90927 58 ft 102 kts 225°
2026-04-23 01:05 38.26971 -121.91492 55 ft 83 kts 227°
2026-04-23 01:05 38.26622 -121.91987 55 ft 54 kts 228°
2026-04-23 01:06 38.26559 -121.92189 58 ft 23 kts 317°
2026-04-23 01:06 38.26686 -121.92336 55 ft 26 kts 318°
2026-04-23 01:06 38.26796 -121.92497 56 ft 22 kts 259°
2026-04-23 01:06 38.26696 -121.92660 54 ft 25 kts 227°
2026-04-23 01:07 38.26568 -121.92836 57 ft 29 kts 228°
2026-04-23 01:07 38.26440 -121.93025 56 ft 17 kts 252°
2026-04-23 01:07 38.26505 -121.93145 56 ft 14 kts 309°
2026-04-23 01:07 38.26486 -121.93223 56 ft 1 kts 229°